Hourly Data Report for October 07, 2014

All times are specified in Local Standard Time (LST). Add 1 hour to adjust for Daylight Saving Time where and when it is observed.

RANKIN INLET A
NUNAVUT

62°48'38.000" N
92°06'53.000" W
32.30 m
2303405
71083
YRT

Download Data

Hourly Data (October 2014)
Hourly Data Report for October 7, 2014
Temp Definition
°C
Dew Point Temp Definition
°C
Rel Hum Definition
%
Wind Dir Definition
10's deg

Wind Spd Definition
km/h
Visibility Definition
km
Stn Press Definition
kPa
Hmdx Definition


Wind Chill Definition


Weather Definition


TIME
00:00 Legend Double Dagger 1.7 1.3 97 7 27 0.4 100.53     Fog
01:00 Legend Double Dagger 0.9 0.5 97 9 26 0.4 100.59     Fog
02:00 Legend Double Dagger 0.8 0.4 97 8 30 0.4 100.63     Fog
03:00 Legend Double Dagger 1.0 0.6 97 7 27 0.4 100.64     Fog
04:00 Legend Double Dagger 0.9 0.5 97 7 22 0.4 100.65     Fog
05:00 Legend Double Dagger 0.7 0.0 95 6 23 24.1 100.68     LegendNANA
06:00 Legend Double Dagger 0.7 -0.2 94 6 27 24.1 100.72     Mainly Clear
07:00 Legend Double Dagger 0.6 -0.1 95 6 30 24.1 100.77     LegendNANA
08:00 Legend Double Dagger 1.1 0.2 94 6 27 24.1 100.80     LegendNANA
09:00 Legend Double Dagger 1.5 0.3 92 5 25 24.1 100.84     Mainly Clear
10:00 Legend Double Dagger 1.6 0.6 93 5 27 24.1 100.85     LegendNANA
11:00 Legend Double Dagger 2.1 0.8 91 5 26 24.1 100.91     LegendNANA
12:00 Legend Double Dagger 2.5 1.2 91 5 21 24.1 100.93     Mostly Cloudy
13:00 Legend Double Dagger 3.1 1.5 89 6 24 24.1 100.98     LegendNANA
14:00 Legend Double Dagger 2.9 1.4 90 7 19 24.1 101.03     LegendNANA
15:00 Legend Double Dagger 3.0 1.4 89 7 24 24.1 101.07     Mostly Cloudy
16:00 Legend Double Dagger 2.8 1.2 89 7 19 24.1 101.12     LegendNANA
17:00 Legend Double Dagger 2.8 1.2 89 7 22 24.1 101.18     LegendNANA
18:00 Legend Double Dagger 2.1 0.9 92 2 18 24.1 101.24     Mostly Cloudy
19:00 Legend Double Dagger 2.0 1.1 94 6 22 24.1 101.28     LegendNANA
20:00 Legend Double Dagger 1.3 0.7 96 5 23 16.1 101.31     LegendNANA
21:00 Legend Double Dagger 1.1 0.5 96 5 22 24.1 101.32     Cloudy
22:00 Legend Double Dagger 0.8 0.2 96 3 27 24.1 101.35     LegendNANA
23:00 Legend Double Dagger 0.5 -0.1 96 3 21 24.1 101.38     LegendNANA

Notes on Data Quality.

Legend

  • E = Estimated
  • M = Missing
  • NA = Not Available
  • ‡ = Partner data that is not subject to review by the National Climate Archives
Date modified: